Home   Weather   Linden   Past weeks

Flag for Guyana Past Weather in Linden, Guyana — Yesterday and Last 2 Weeks

Now
77 °F

Clear.


Feels Like: 78 °F
Forecast: 75 / 89 °F
Wind: 5 mph from South

Location: Georgetown/Cheddi Jagan International Airport

Current Time: Oct 1, 2016 at 3:06:22 AM

Latest Report: Oct 1, 2016 at 2:00 AM


Visibility: 10 mi

Pressure: 29.77 "Hg

Humidity: 94%

Dew Point: 75 °F

Location of LindenLocation

Past Weather in Linden — Graph

°F

Linden Temperature Yesterday

Maximum temperature yesterday: 93 °F (at 12:00 PM)
Minimum temperature yesterday: 73 °F (at 5:00 AM)
Average temperature yesterday: 82 °F

High & Low Weather Summary for the Past Weeks

 TemperatureHumidityPressure
High93 °F (Sep 19, 12:00 PM)100% (Sep 16, 12:00 AM)29.98 "Hg (Sep 16, 12:00 AM)
Low72 °F (Sep 23, 5:00 AM)52% (Sep 18, 2:00 PM)29.74 "Hg (Sep 30, 3:00 PM)
Average81 °F83%29.88 "Hg
* Reported Sep 16 12:00 AM — Oct 1 12:00 AM, Linden, Weather by CustomWeather, © 2016

Note: Actual official high and low records may vary slightly from our data, if they occured in-between our weather recording intervals... More about our weather records

Advertising

Linden Weather History for the Previous 24 Hours

Scroll right to see more
 ConditionsComfort  
Time TempWeatherWind HumidityBarometerVisibility
12:00 AM
Sat, Oct 1
77 °FClear.5 mph100%29.83 "Hg10 mi
11:00 PM
Fri, Sep 30
77 °FClear.5 mph100%29.83 "Hg10 mi
10:00 PM77 °FClear.5 mph100%29.83 "Hg10 mi
9:00 PM79 °FClear.5 mph94%29.80 "Hg10 mi
8:00 PM79 °FClear.5 mph94%29.77 "Hg10 mi
7:00 PM81 °FPassing clouds.5 mph84%29.77 "HgN/A
6:00 PM82 °FPassing clouds.7 mph79%29.74 "HgN/A
5:00 PM86 °FBroken clouds.9 mph70%29.74 "HgN/A
4:00 PM88 °FBroken clouds.9 mph66%29.74 "HgN/A
3:00 PM90 °FPartly sunny.14 mph63%29.74 "HgN/A
2:00 PM90 °FPartly sunny.12 mph63%29.77 "HgN/A
1:00 PM91 °FPartly sunny.7 mph56%29.80 "HgN/A
12:00 PM93 °FPartly sunny.7 mph53%29.83 "HgN/A
11:00 AM90 °FPartly sunny.7 mph63%29.86 "HgN/A
10:00 AM88 °FPartly sunny.7 mph70%29.89 "HgN/A
9:00 AM86 °FScattered clouds.5 mph75%29.89 "HgN/A
8:00 AM81 °FPassing clouds.2 mph89%29.86 "HgN/A
7:00 AM77 °FPassing clouds.5 mph94%29.86 "Hg6 mi
6:27 AM73 °FPassing clouds.5 mph100%29.83 "Hg5 mi
6:00 AM73 °FFog.2 mph100%29.83 "Hg1 mi
5:00 AM73 °FClear.2 mph94%29.83 "Hg10 mi
4:00 AM75 °FClear.2 mph94%29.83 "Hg6 mi
Weather by CustomWeather, © 2016

See weather overviewHow to use our weather pages